Regional Weather Roundup
Issued by NWS Key West, FL

Home | Current Version | Previous Version | Text Only | Print | Product List | Glossary On
Versions: 1 2 3 4 5 6 7 8 9 10 11 12 13 14 15 16 17 18 19 20 21 22 23 24 25 26 27 28
000
ASUS42 KKEY 310511
RWRKEY

FLORIDA KEYS REGIONAL WEATHER ROUNDUP
NATIONAL WEATHER SERVICE KEY WEST FLORIDA
100 AM EDT SAT JUL 31 2021

...FLORIDA KEYS...

CITY           SKY/WX    TMP DP  RH WIND       PRES   REMARKS
KEY WEST       PTCLDY    85  75  72 E12       30.08S HX  93
MARATHON       CLEAR     84  75  74 SE7       30.07F HX  92

...SOUTH FLORIDA...

CITY           SKY/WX    TMP DP  RH WIND       PRES   REMARKS
HOMESTEAD      CLEAR     81  77  90 CALM      30.08F
WEST KENDALL   CLEAR     80  75  84 CALM      30.09F
MIAMI          PTCLDY    84  76  76 CALM      30.09F HX  93
OPA LOCKA      PTCLDY    82  75  79 S3        30.09F
PEMBROKE PINES PTCLDY    83  74  74 S3        30.10F
FT LAUDERDALE  PTCLDY    84  75  74 S6        30.08F HX  92
FT LAUD EXEC   PTCLDY    84  77  79 CALM      30.08F HX  94
POMPANO BEACH  PTCLDY    85  74  69 S6        30.08F HX  92
BOCA RATON     NOT AVBL
WEST PALM BCH  MOCLDY    83  76  79 S5        30.08F HX  91

...SOUTHWEST FLORIDA...

CITY           SKY/WX    TMP DP  RH WIND       PRES   REMARKS
MARCO ISLAND   NOT AVBL
NAPLES         CLEAR     82  77  84 SE3       30.07F HX  90
FT MYERS-SW AP CLEAR     81  73  76 CALM      30.07F
FORT MYERS     CLEAR     83  75  77 CALM      30.06F HX  90

...ADJACENT COASTAL WATERS...

STATION/POSITION TIME  SKY/WX   TEMP    WIND        PRES    WAVE
                                AIR SEA DIR/SP/G            HT/PER
                 (UTC)          (F)     (DEG/KT/KT) (MB)    (FT/S)
PULASKI SHOAL LT NOT AVBL
SAND KEY         0450            84     120/ 12/ 15 1019.1R
SOMBRERO KEY     0450                   130/ 10/ 12 1017.6F
LONG KEY         0450                               1018.2F
FOWEY ROCKS      0400            85 86  150/  6/  7 1019.3F
SATAN SHL BUOY   0430            85 87                N/A     2/ 5
LOOP CURR BUOY   0400            85 87   90/  6/  8 1019.0R
PULLEY RDG BUOY  0426               88                N/A     1

...INTERNATIONAL WEATHER...

CITY           SKY/WX    TMP DP  RH WIND       PRES   REMARKS
NASSAU         PTCLDY    81  75  83 S5        30.11F
HAVANA         PTCLDY    77  75  94 E2        30.06S
VARADERO       PTCLDY    75  75 100 S3        30.09S
CANCUN         PTCLDY    84  79  84 E8        30.06S HX  96
COZUMEL          N/A    N/A N/A N/A MISG        N/A
KINGSTON       PTCLDY    84  73  70 SE17      30.00S HX  91

$$



USA.gov is the U.S. government's official web portal to all federal, state and local government web resources and services.